Location: Belloy
(55.7522°N, 118.2333°W)
Time: 22:39:45
(UTC+00:00)

Envisat - Pass Details

Date: 04 December 2021
Orbit: 764 x 766 km, 98.2° (Epoch: 27 January)

Event Time Altitude Azimuth Distance (km) Brightness Sun altitude
Rises 00:09:05 0° 176° (S) 3,223 6.6 -6.0°
Reaches altitude 10° 00:11:26 10° 181° (S) 2,302 5.9 -6.3°
Maximum altitude 00:16:25 56° 259° (W) 916 3.9 -6.9°
Drops below altitude 10° 00:21:26 10° 338° (NNW) 2,319 5.4 -7.5°
Sets 00:23:48 0° 343° (NNW) 3,250 6.1 -7.8°
